STARLINK-34095, 63809

Orbit data source: Space-Track

STARLINK-34095, 63809 is a payload satellite owned by SpaceX/Seattle (US) in LEO that was launched on Sun, 04 May 2025 UTC via an FALCON 9 launch vehicle from the Air Force Eastern Test Range (AFETR). Payload-class satellites include a variety of spacecraft equipped with specific instruments for various scientific and technological missions. These include communications satellites like Starlink; space stations such as the ISS; scientific satellites like the Hubble; Earth observation satellites from companies like Planet Labs, Umbra, and HawkEye 360; GPS; miniature CubeSats for education and research; and military/defense satellites.

Loading next visibility...
Identifier
63809, 2025-092F
Orbit
LEO
Country
Flag of USUS
Related business
Manufacturer
SpaceX/Seattle
Mission
Operational spacecraft
Bus & Motor
STARLINK V2MO, Unknown motor
Mass
575 kg wet, ~530 kg dry
Launch date (UTC)
2025-05-04 (6 months ago)
Launch vehicle
FALCON 9
Launch site
Air Force Eastern Test Range (AFETR)
Object type
Payload
Rocket body
Debris
Shape & HBR
Unknown shape, 17.7 m
Radar Cross Section
Large (>1 m²)

Expand to show TLE details & history
Last TLE update: 11 hours ago

TLE from 11 hours ago
0 STARLINK-34095
1 63809U 25092F   25310.52574176  .00048575  00000-0  17616-2 0  9994
2 63809  43.0003 148.5191 0001683 250.6494 109.4176 15.27608070 29774
Epoch: 2025-11-06T12:37Z
TLE epoch observation values (Epoch: 2025-11-06T12:37:04.088Z)
Latitude
0.00002°
Longitude
-86.73072°
Altitude
483.124 km
Speed
7.625 km/s
True Right ascension
09h 54m 04s
True Declination
0° 00' 00"
Sunlit
Object was in daylight at epoch
Visualization orbit readout
Latitude
Unknown
Longitude
Unknown
Altitude
Unknown
Speed
Unknown
Apparent Right ascension
Unknown
Apparent Declination
Unknown
Sunlit
N/A
Visualization observer readout
Local Sidereal Time
19:55:07
Azimuth
Unknown
Elevation
Unknown
Doppler factor
Unknown
Orbital elements
Apogee altitude
486.065 km
Perigee altitude
483.755 km
Semi-major axis
6,863.047 km
Eccentricity
0.00017
Inclination
43.0003°
RAAN
148.5191°
Arg. of periapsis
250.6494°
True anomaly
109.43579°
Mean anomaly
109.4176°
Eccentric anomaly
109.42669°
Mean motion
3.8174 °/min
Orbital period
94.31 mins
BSTAR
0.0017616
Loading maneuver chart data...
Computing Atmospheric mass density...
Loading historical data...
Loading historical data...
Loading historical data...
Loading historical data...
Loading historical data...
Loading historical data...
Loading historical data...

Documentation

Showing up to 5 results
|